Location: Grandview
(34.8900°N, 117.1058°W)
Time: 17:49:44
(UTC-07:00)

Vanguard 1 Rocket - All Passes

Search period start: 20 June 2018 00:00
Search period end: 30 June 2018 00:00
Orbit: 653 x 4224 km, 34.3° (Epoch: 20 June)

Date Brightness Start Highest point End Pass type
(mag) Time Alt. Az. Time Alt. Az. Time Alt. Az.
20 Jun - 02:05:54 10° WSW 02:13:19 14° SW 02:22:35 10° S visible
20 Jun - 15:13:15 10° S 15:16:03 15° SSE 15:18:42 10° ESE daylight
20 Jun - 17:35:55 10° WSW 17:40:17 66° SSE 17:46:10 10° E daylight
20 Jun - 19:59:57 10° W 20:05:23 82° S 20:15:18 10° ESE daylight
20 Jun - 22:24:07 10° W 22:31:41 49° SSW 22:46:07 10° SE visible
21 Jun - 00:51:11 10° WSW 01:00:00 22° SSW 01:13:00 10° S visible
21 Jun - 16:25:32 10° SW 16:29:44 41° SSE 16:34:17 10° E daylight
21 Jun - 18:49:38 10° W 18:54:21 86° S 19:01:53 10° E daylight
21 Jun - 21:13:38 10° W 21:19:58 60° SSW 21:32:04 10° ESE visible
21 Jun - 23:38:56 10° W 23:47:12 30° SSW 00:00:58 10° SSE visible
22 Jun - 15:15:17 10° SSW 15:19:12 24° SSE 15:22:45 10° E daylight
22 Jun - 17:39:11 10° WSW 17:43:34 77° S 17:49:21 10° E daylight
22 Jun - 20:03:19 10° W 20:08:40 73° S 20:18:14 10° ESE daylight
22 Jun - 22:27:44 10° W 22:34:56 38° SSW 22:47:54 10° SE visible
23 Jun - 00:56:49 10° WSW 01:03:18 15° SSW 01:11:44 10° S visible
23 Jun - 14:05:38 10° S 14:08:24 14° SSE 14:10:49 10° ESE daylight
23 Jun - 16:28:34 10° WSW 16:32:57 55° SSE 16:37:38 10° E daylight
23 Jun - 18:53:00 10° W 18:57:40 84° S 19:05:00 10° E daylight
23 Jun - 21:17:05 10° W 21:23:13 49° SSW 21:34:27 10° SE visible
23 Jun - 23:43:17 10° WSW 23:50:29 22° SSW 00:01:23 10° SSE visible
24 Jun - 15:17:48 10° SW 15:22:23 34° SSE 15:26:24 10° E daylight
24 Jun - 17:42:30 10° W 17:46:53 84° S 17:52:34 10° E daylight
24 Jun - 20:06:42 10° W 20:11:56 62° SSW 20:21:04 10° ESE daylight
24 Jun - 22:31:34 10° W 22:38:14 29° SSW 22:49:18 10° SSE visible
25 Jun - 14:07:08 10° SSW 14:11:39 22° SSE 14:15:13 10° ESE daylight
25 Jun - 16:31:43 10° WSW 16:36:14 69° SSE 16:40:56 10° E daylight
25 Jun - 18:56:22 10° W 19:00:59 76° S 19:08:06 10° ESE daylight
25 Jun - 21:20:40 10° W 21:26:29 38° SSW 21:36:34 10° SE visible
25 Jun - 23:48:40 10° WSW 23:53:52 14° SSW 00:00:40 10° S visible
26 Jun - 12:57:01 10° S 13:00:34 14° SSE 13:03:27 10° SE daylight
26 Jun - 15:20:37 10° SW 15:25:38 47° SSE 15:29:52 10° E daylight
26 Jun - 17:45:50 10° W 17:50:12 85° S 17:55:48 10° E daylight
26 Jun - 20:10:09 10° W 20:15:12 49° SSW 20:23:43 10° SE daylight
26 Jun - 22:35:49 10° WSW 22:41:34 21° SSW 22:50:09 10° SSE visible
27 Jun - 14:09:19 10° SW 14:14:55 31° SSE 14:19:01 10° E daylight
27 Jun - 16:34:57 10° W 16:39:33 79° S 16:44:13 10° E daylight
27 Jun - 18:59:44 10° W 19:04:17 65° SSW 19:11:07 10° ESE daylight
27 Jun - 21:24:27 10° W 21:29:48 28° SSW 21:38:21 10° SSE visible
28 Jun - 12:58:06 10° SSW 13:03:54 22° SSE 13:08:01 10° ESE daylight
28 Jun - 15:23:36 10° WSW 15:28:56 61° SSE 15:33:14 10° E daylight
28 Jun - 17:49:10 10° W 17:53:32 80° S 17:58:59 10° E daylight
28 Jun - 20:13:41 10° W 20:18:29 37° SSW 20:26:09 10° SE daylight
28 Jun - 22:41:07 10° SW 22:44:58 13° SSW 22:49:51 10° S visible
29 Jun - 11:47:25 10° S 11:52:27 15° SSE 11:56:18 10° ESE daylight
29 Jun - 14:11:52 10° SW 14:18:12 43° SSE 14:22:35 10° E daylight
29 Jun - 16:38:13 10° W 16:42:52 84° S 16:47:30 10° E daylight
29 Jun - 19:03:08 10° W 19:07:33 51° SSW 19:14:00 10° ESE daylight
29 Jun - 21:28:38 10° WSW 21:33:10 19° SSW 21:39:36 10° SSE visible
